Fort Worth, TX

9:25 AM CST on February 25, 2017 (GMT -0600)
Fort Worth Meacham International

Weather History for KFTW - January, 2009

Change the Weather History Date:

Thursday, January 1, 2009

  Actual Average Record
Temperature  
Mean Temperature 52 °F -  
Max Temperature 70 °F 55 °F 82 °F (2006)
Min Temperature 34 °F 35 °F 24 °F (2001)
Degree Days  
Heating Degree Days 13    
Growing Degree Days 2 (Base 50)    
Moisture  
Dew Point 35 °F    
Average Humidity 58    
Maximum Humidity 80    
Minimum Humidity 33    
Precipitation  
Precipitation 0.00 in - - ()
Sea Level Pressure  
Sea Level Pressure 29.94 in    
Wind  
Wind Speed 8 mph (SSE)    
Max Wind Speed 18 mph    
Max Gust Speed 26 mph    
Visibility 10 miles    
Events      
Averages and records for this station are not official NWS values.
T = Trace of Precipitation, MM = Missing Value Source: NWS Daily Summary

Daily Weather History Graph

Daily Weather History Graph

Search for Another Location

Airport or City:

Trip Planner

Search our weather history database for the weather conditions in past years. The results will help you decide how hot, cold, wet, or windy it might be!

Date:

Astronomy

Jan. 01, 2009 Rise Set
Actual Time 7:32 AM CST 5:34 PM CST
Civil Twilight 7:04 AM CST 6:01 PM CST
Nautical Twilight 6:34 AM CST 6:32 PM CST
Astronomical Twilight 6:04 AM CST 7:02 PM CST
Moon 10:35 AM CST (1/1) 10:30 PM CST (1/1)
Length of Visible Light 10h 56m
Length of Day
10h 02m
Waxing Crescent, 23% of the Moon is Illuminated
Jan 1
Waxing Crescent
Jan 4
First Quarter
Jan 10
Full
Jan 17
Last Quarter
Jan 26
New

Hourly Weather History & Observations

Time (CST) Temp. Windchill Dew Point Humidity Pressure Visibility Wind Dir Wind Speed Gust Speed Precip Events Conditions
12:53 AM 35.1 °F - 24.1 °F 64% 30.17 in 10.0 mi Calm Calm - N/A   Clear
1:53 AM 36.0 °F 31.1 °F 25.0 °F 64% 30.13 in 10.0 mi SE 5.8 mph - N/A   Clear
2:53 AM 35.1 °F 31.0 °F 27.0 °F 72% 30.12 in 9.0 mi SE 4.6 mph - N/A   Clear
3:53 AM 36.0 °F 30.3 °F 25.0 °F 64% 30.10 in 10.0 mi ESE 6.9 mph - N/A   Clear
4:53 AM 35.1 °F 29.3 °F 25.0 °F 67% 30.09 in 10.0 mi SE 6.9 mph - N/A   Clear
5:53 AM 35.1 °F 29.3 °F 25.0 °F 67% 30.08 in 10.0 mi ESE 6.9 mph - N/A   Clear
6:53 AM 34.0 °F 28.8 °F 25.0 °F 70% 30.08 in 10.0 mi SE 5.8 mph - N/A   Clear
7:53 AM 35.1 °F 27.9 °F 26.1 °F 70% 30.08 in 10.0 mi SE 9.2 mph - N/A   Clear
8:53 AM 39.0 °F 31.4 °F 27.0 °F 62% 30.06 in 10.0 mi SSE 12.7 mph - N/A   Clear
9:53 AM 44.1 °F 36.8 °F 28.0 °F 53% 30.04 in 10.0 mi South 16.1 mph - N/A   Clear
10:53 AM 51.1 °F - 30.9 °F 46% 30.00 in 10.0 mi South 16.1 mph - N/A   Clear
11:53 AM 57.0 °F - 35.1 °F 44% 29.94 in 10.0 mi SSW 18.4 mph 26.5 mph N/A   Clear
12:53 PM 62.1 °F - 37.0 °F 39% 29.89 in 10.0 mi South 17.3 mph 23.0 mph N/A   Clear
1:53 PM 66.9 °F - 41.0 °F 39% 29.85 in 10.0 mi SSW 15.0 mph 23.0 mph N/A   Clear
2:53 PM 69.1 °F - 41.0 °F 36% 29.81 in 10.0 mi South 16.1 mph - N/A   Clear
3:53 PM 70.0 °F - 39.9 °F 33% 29.79 in 10.0 mi South 16.1 mph 24.2 mph N/A   Clear
4:53 PM 68.0 °F - 41.0 °F 37% 29.78 in 10.0 mi South 15.0 mph 20.7 mph N/A   Clear
5:53 PM 64.0 °F - 41.0 °F 43% 29.80 in 10.0 mi South 5.8 mph - N/A   Clear
6:53 PM 59.0 °F - 41.0 °F 51% 29.81 in 10.0 mi SE 10.4 mph - N/A   Clear
7:53 PM 55.9 °F - 42.1 °F 60% 29.82 in 10.0 mi SSE 8.1 mph - N/A   Clear
8:53 PM 57.9 °F - 48.0 °F 70% 29.80 in 10.0 mi South 12.7 mph - N/A   Clear
9:53 PM 59.0 °F - 51.1 °F 75% 29.81 in 10.0 mi South 16.1 mph 20.7 mph N/A   Clear
10:53 PM 57.9 °F - 51.1 °F 78% 29.81 in 10.0 mi South 13.8 mph - N/A   Clear
11:53 PM 55.9 °F - 50.0 °F 80% 29.81 in 10.0 mi South 5.8 mph - N/A   Clear